Wind_Speed
13 13 13 13 13 13 13 12 11 10 10 8 8 7 8 8 9 11 12 13 14 14 15 15 14 14 14 15 14 14 15 14 15 13 10 12 17 18 17 17 18 20 19 20 18 16 14 11 9 7 6 5 3 2 2 2 2 2 2 2 6 7 9 10 11 17 21 22 22 20 18 15 16 19 20 21 17 11 12 14 13 12 13 15 19 20 22 23
13 13 13 13 13 12 12 12 12 12 11 10 9 8 8 8 8 10 12 13 14 14 15 15 15 15 15 15 14 14 14 15 15 12 13 17 19 17 15 15 16 17 18 19 17 15 12 9 8 7 7 6 4 2 2 3 3 3 3 3 7 7 8 10 12 19 22 21 21 19 17 15 16 18 19 19 16 10 10 15 15 14 14 17 21 21 22 22
13 13 13 14 13 13 12 12 12 12 12 12 11 10 9 8 8 9 10 12 14 14 15 15 16 16 16 15 14 14 13 14 14 14 17 19 16 15 14 13 13 15 16 17 15 14 11 9 8 7 8 6 4 3 3 3 3 4 4 4 7 7 8 10 15 21 21 20 20 19 17 16 17 17 17 16 14 10 8 12 16 15 15 18 22 22 22 22
12 13 14 14 14 14 14 13 13 12 12 12 12 12 11 9 9 9 10 10 12 14 15 15 16 17 17 16 15 14 13 14 14 16 20 18 15 15 13 12 12 13 16 18 17 15 14 13 12 11 9 6 5 5 4 4 4 5 5 6 6 7 8 12 18 22 21 20 19 18 18 16 17 15 14 13 12 11 11 11 12 11 11 16 22 22 21 21
13 13 14 14 14 14 14 14 14 13 13 12 13 13 12 11 10 10 9 10 10 12 14 16 16 17 17 17 15 14 14 13 14 17 20 18 16 16 14 13 13 13 16 19 20 19 17 17 16 14 11 8 7 7 6 6 5 6 6 6 7 7 8 13 21 23 22 22 20 19 18 16 16 14 12 11 10 10 12 15 13 7 6 13 19 20 21 20
13 14 14 14 14 14 14 14 14 13 13 13 13 13 14 13 12 11 10 9 10 11 13 15 17 18 18 18 17 15 14 13 13 17 19 18 17 17 16 16 14 15 16 18 20 20 20 19 18 16 13 11 9 8 8 7 6 6 6 6 8 8 10 16 22 24 23 23 21 19 17 15 14 13 12 11 10 10 13 18 14 8 8 13 17 18 19 20
14 14 14 14 14 13 13 13 13 13 13 13 13 13 14 14 13 12 11 10 9 10 12 14 16 18 18 18 18 16 16 14 13 16 19 19 18 18 18 18 17 16 16 17 19 20 20 20 19 17 13 12 10 8 7 7 6 7 7 6 8 9 12 18 22 23 23 22 20 18 17 15 13 12 13 12 12 14 16 18 12 9 12 16 17 17 18 19
14 14 14 14 13 13 13 12 12 12 12 12 13 13 14 14 14 12 11 10 9 10 11 13 15 17 19 19 19 18 16 16 15 15 18 19 19 19 19 19 18 17 15 16 17 19 20 20 19 18 15 12 10 8 7 6 6 8 7 7 8 10 14 19 20 20 21 21 19 18 17 15 13 12 13 13 15 16 17 15 10 12 16 17 17 18 18 19
14 14 14 14 14 13 13 12 12 12 12 12 13 13 13 14 14 13 12 11 10 10 11 12 14 16 19 20 20 19 17 18 17 15 17 18 19 20 20 19 17 16 15 16 18 19 20 20 19 18 16 13 11 9 7 6 6 7 7 8 9 12 15 17 18 18 20 21 20 18 17 16 14 14 14 16 17 17 18 12 9 16 18 17 18 18 18 19
14 14 14 14 14 13 14 13 13 13 12 12 13 13 14 14 14 13 12 11 10 10 10 12 13 15 18 20 20 19 18 19 18 16 16 19 20 20 20 19 17 16 14 16 18 19 20 19 19 18 16 14 11 9 6 5 6 7 8 9 10 13 15 16 19 20 21 21 19 18 18 16 15 15 17 18 18 17 17 13 12 17 17 18 18 18 18 18
15 14 14 14 14 14 14 14 14 14 13 13 13 13 14 14 14 13 12 11 10 10 10 11 13 14 16 19 19 18 19 20 19 18 17 20 21 21 20 19 18 15 13 15 17 18 20 20 19 18 16 13 10 8 5 5 7 7 8 10 11 13 15 16 19 21 22 21 19 18 17 17 16 16 17 18 19 17 16 14 15 18 18 18 18 18 18 18
15 14 14 14 14 14 14 15 15 15 13 12 12 12 13 14 14 13 12 11 10 10 10 11 12 14 16 17 17 18 20 20 20 19 19 21 22 22 22 21 20 16 13 15 17 19 22 23 20 17 14 11 9 6 5 6 7 6 7 10 11 12 13 17 19 20 20 20 20 19 18 18 17 17 18 18 18 17 16 15 18 20 18 19 19 18 19 18
15 13 13 13 13 14 14 15 15 14 13 12 11 11 11 12 13 12 11 10 10 10 10 11 12 14 15 16 17 19 20 20 20 20 20 22 23 24 24 23 22 20 17 17 18 18 21 24 21 16 14 11 8 6 6 7 7 5 6 10 13 13 14 18 21 20 19 18 20 21 19 19 19 18 19 18 18 18 18 18 20 21 20 20 20 19 19 19
14 12 12 13 13 13 13 14 14 13 12 11 11 10 10 10 11 10 10 9 9 10 10 11 12 14 15 15 17 18 19 20 21 20 20 22 23 24 25 25 24 22 22 22 22 20 22 24 21 16 14 11 8 7 9 9 7 6 7 9 12 14 15 19 21 21 20 18 21 23 20 20 21 19 19 18 18 18 19 21 22 21 20 21 21 20 20 19
13 12 11 12 13 13 13 13 13 12 11 10 10 9 9 9 9 9 8 8 9 9 10 11 12 13 14 14 16 17 18 20 21 20 20 20 21 22 24 25 25 24 24 24 25 24 24 24 20 16 14 11 9 10 11 10 8 8 8 8 10 12 14 19 21 21 20 19 21 22 19 19 21 20 19 18 18 20 21 23 23 22 21 22 22 21 20 19
13 11 11 12 12 13 13 13 12 11 10 9 9 9 9 9 8 8 7 7 8 9 10 10 11 12 13 14 15 17 19 21 21 20 20 19 20 21 23 24 25 24 24 25 26 26 26 25 21 18 15 12 11 12 12 11 10 10 8 7 10 12 13 17 19 19 18 17 20 21 18 18 21 20 20 19 19 21 23 24 24 23 21 22 22 22 21 20
12 11 11 11 12 13 13 12 11 10 10 9 9 9 9 9 8 7 8 8 8 8 8 8 10 11 11 12 14 17 19 21 22 21 20 20 20 20 22 24 25 25 24 24 26 28 27 25 22 18 15 13 13 14 12 10 12 13 9 6 10 14 14 16 19 19 19 17 18 20 18 17 19 20 21 21 20 20 23 25 25 24 23 23 23 21 21 20
11 11 11 11 11 12 13 12 10 10 9 9 9 9 9 9 9 8 8 7 7 6 5 6 8 9 9 10 14 17 19 20 20 21 21 20 20 20 21 23 24 25 24 25 28 29 27 25 23 19 16 15 16 17 13 10 12 13 11 7 8 13 14 14 18 21 21 17 17 19 18 16 17 20 23 22 20 20 21 23 24 24 23 23 23 21 20 20
11 11 11 11 11 11 12 11 9 9 9 8 9 10 9 9 8 8 8 8 7 4 4 5 7 9 10 12 15 18 18 17 17 19 20 21 21 20 21 21 23 25 25 27 30 29 28 26 23 20 19 19 18 18 14 8 7 9 9 6 7 12 12 11 15 20 20 17 16 18 18 17 16 20 24 24 22 20 20 21 22 23 24 23 22 21 20 19
11 10 10 10 10 11 10 9 7 7 8 9 10 10 10 9 6 6 7 9 8 3 4 5 7 10 11 14 18 19 18 16 15 16 18 20 22 21 21 22 23 24 24 28 32 30 27 25 25 24 22 20 16 14 12 5 4 7 8 7 8 9 9 8 10 17 19 16 14 15 16 16 14 17 23 25 23 22 22 22 23 23 23 23 21 21 20 19
10 10 10 10 10 10 8 7 6 7 9 10 11 11 12 11 8 7 4 5 6 2 3 5 7 10 12 16 19 19 17 15 13 13 15 18 21 21 21 23 25 26 25 27 31 31 27 25 26 25 21 16 12 12 11 5 4 8 9 8 10 9 7 6 9 15 18 16 14 14 15 15 13 14 20 24 24 25 24 23 23 23 22 22 22 21 20 20
10 10 10 9 9 8 6 6 6 8 10 11 11 11 12 12 11 11 8 3 1 2 5 6 9 10 12 15 18 18 17 15 13 12 13 16 19 20 22 24 25 27 26 27 31 31 28 29 27 23 19 14 13 14 10 6 7 9 8 9 11 10 7 6 9 14 17 17 16 15 16 15 14 13 16 21 24 24 25 24 23 22 22 22 22 22 22 22
10 10 10 9 9 6 4 5 6 8 10 11 10 10 11 12 12 12 10 6 6 9 10 10 10 9 9 13 17 17 15 15 14 12 12 13 16 18 21 24 25 26 26 28 33 32 28 29 27 21 18 15 15 15 12 10 11 9 8 10 11 9 7 7 9 13 16 17 17 17 16 15 15 15 15 19 23 24 25 25 24 22 22 21 20 20 21 23
9 10 10 9 8 6 4 5 7 8 9 9 8 10 11 12 12 11 10 10 11 12 12 12 10 8 8 10 14 15 14 15 13 11 13 13 14 17 19 23 25 25 27 29 32 32 27 25 25 21 18 16 16 16 15 13 11 10 8 9 10 10 8 9 10 12 15 16 18 18 16 16 18 17 18 20 23 25 25 25 25 24 22 21 19 20 20 22
8 9 10 9 6 5 5 6 8 8 7 8 9 11 11 12 11 9 9 9 10 11 11 10 8 7 7 7 10 13 14 15 12 11 13 12 12 16 19 23 25 26 29 31 30 29 23 20 23 23 19 17 17 18 18 15 12 11 9 7 9 10 10 11 10 10 12 14 17 18 14 15 21 19 18 21 22 24 26 25 26 25 24 24 22 21 21 22
8 8 9 7 6 5 6 7 8 9 9 10 11 11 11 11 10 9 8 7 10 10 7 7 6 7 6 6 8 11 13 15 13 10 12 12 10 14 19 23 25 27 30 31 27 25 22 18 20 24 22 19 18 20 19 16 13 11 9 7 7 9 10 12 13 10 10 10 13 18 14 9 19 23 20 20 22 25 27 25 26 26 25 25 23 21 22 24
7 7 7 5 5 6 6 8 10 11 11 11 11 11 10 9 8 9 7 7 8 6 5 4 4 7 8 8 10 10 12 16 13 10 11 12 10 12 18 22 25 26 29 30 23 20 23 20 17 21 24 23 21 21 20 18 15 11 9 8 5 6 6 9 13 12 10 7 7 17 17 6 12 22 22 21 23 26 29 27 26 27 25 24 23 22 24 25
6 6 5 3 5 7 10 12 12 12 11 11 11 11 10 8 7 7 5 4 4 3 4 4 3 8 10 10 11 7 9 15 13 11 12 11 9 10 15 19 22 23 26 28 19 16 23 22 17 17 21 26 27 23 20 18 16 13 10 8 6 4 4 6 11 13 12 9 7 15 19 6 4 15 22 23 25 27 30 29 27 27 26 24 23 23 24 25
5 5 3 2 6 10 12 12 11 11 11 11 11 10 10 8 7 6 4 3 3 3 4 5 5 7 9 10 10 8 10 13 10 12 14 12 9 9 12 15 18 18 19 22 18 15 18 19 19 17 18 23 27 25 22 19 19 16 9 6 6 6 7 8 8 11 11 8 8 16 19 9 3 14 25 27 29 30 31 30 27 26 27 26 25 24 24 24
4 3 1 4 9 12 11 10 11 10 10 10 9 8 10 8 6 4 3 3 2 2 3 5 4 5 10 12 9 9 11 10 7 11 15 14 11 10 10 12 15 15 14 17 19 17 15 15 18 20 18 19 22 24 24 21 20 17 10 6 7 7 9 8 7 9 8 5 6 12 19 14 6 14 29 33 30 27 28 31 29 27 27 28 26 25 24 23
3 1 2 7 11 11 10 10 10 9 8 8 6 6 8 10 9 5 2 3 2 3 4 4 2 4 10 12 8 7 8 7 6 9 14 14 12 10 10 11 13 13 11 11 15 19 19 16 16 19 19 17 17 20 21 20 20 18 14 11 9 7 7 5 6 8 6 2 1 4 16 19 9 10 24 33 29 23 23 29 30 28 27 28 27 26 24 22
1 1 5 10 12 11 10 9 8 8 7 6 5 6 6 8 10 8 4 3 2 1 1 3 5 5 8 10 7 3 4 5 4 8 13 14 13 11 9 10 12 11 9 8 10 15 20 21 18 17 20 20 17 17 17 17 18 17 16 15 9 6 5 3 3 4 4 4 1 1 9 16 13 11 15 21 24 23 24 25 27 28 27 27 27 26 25 23
1 4 8 12 12 10 10 8 7 8 7 7 7 8 10 8 7 9 7 5 2 0 3 5 7 6 6 8 7 3 3 3 3 9 14 13 13 12 8 9 12 8 5 8 9 9 13 18 21 19 21 22 20 18 19 18 18 18 18 18 11 5 4 2 2 2 4 6 7 5 6 8 10 13 13 14 15 20 25 25 25 27 27 27 26 25 25 24
4 8 11 12 11 10 9 7 8 8 7 8 7 8 12 10 6 9 10 8 5 3 6 7 6 6 5 5 6 5 4 3 4 10 14 12 12 12 10 9 11 8 4 6 8 7 8 12 20 22 22 23 24 21 19 17 18 19 19 17 14 10 5 3 5 4 1 3 4 5 6 5 6 9 11 12 12 15 24 29 28 27 28 28 26 25 24 24
6 10 10 10 10 9 8 7 8 7 8 9 6 6 11 9 7 10 11 9 6 4 5 7 7 8 6 5 6 6 5 5 7 10 11 10 10 10 10 10 11 10 8 6 5 6 7 7 13 21 21 21 24 22 17 15 16 20 21 18 16 15 9 3 4 5 3 6 6 7 6 6 8 9 9 9 9 12 21 31 33 30 28 29 29 27 25 25
8 11 10 9 9 8 7 7 7 7 7 6 3 7 12 9 8 9 9 8 5 5 7 8 8 8 6 6 7 6 5 7 10 11 10 8 7 7 8 9 9 10 11 10 6 4 6 6 8 17 22 19 19 23 20 16 17 20 22 20 18 17 13 6 2 5 5 4 5 8 7 7 7 8 9 9 10 11 19 29 34 33 30 29 31 30 27 26
9 11 10 9 9 8 8 8 7 7 7 4 4 9 12 10 9 8 8 8 4 5 8 8 7 7 6 6 7 6 6 9 11 11 10 7 5 6 6 5 5 8 11 12 10 6 6 7 8 14 21 20 16 19 21 18 17 20 23 24 20 16 15 10 3 4 5 3 3 7 8 8 7 6 7 9 10 12 19 27 33 35 34 31 31 32 30 27
10 11 10 10 10 8 7 7 7 8 8 6 8 11 11 9 8 8 8 8 5 3 6 6 7 7 7 7 7 6 6 9 10 9 11 9 6 7 7 5 3 7 9 9 10 7 5 7 7 10 18 22 19 17 19 21 21 20 22 25 21 13 12 12 6 3 5 3 1 4 6 9 13 12 10 8 8 13 19 25 31 36 37 34 31 31 31 29
11 10 10 10 9 8 7 7 7 8 8 8 10 10 10 10 9 7 8 8 7 4 4 7 9 8 6 6 6 6 6 8 10 10 10 9 8 8 7 5 3 5 7 6 7 7 5 5 5 8 14 21 23 22 22 24 25 20 17 23 25 15 11 13 10 6 6 3 2 3 2 7 15 17 14 10 8 10 16 23 30 34 36 35 31 31 31 30
10 10 10 9 8 7 6 7 7 7 7 9 11 9 8 9 8 7 7 7 8 8 7 8 10 9 7 5 5 6 6 8 10 11 10 10 9 7 5 6 5 4 5 5 4 5 6 6 4 5 11 17 21 24 24 23 26 25 20 24 28 20 12 13 12 8 6 3 2 2 1 6 13 16 16 14 10 9 12 18 25 30 33 34 32 31 30 30
11 10 9 8 7 6 6 7 8 8 8 9 10 9 8 8 7 6 6 7 8 8 9 8 8 10 9 8 7 7 9 11 11 10 10 11 9 5 3 3 5 5 4 4 3 3 5 7 6 4 9 14 17 21 23 21 23 26 25 26 28 23 16 12 8 8 7 3 3 3 2 4 10 14 16 15 12 10 12 15 19 25 29 31 32 32 31 30
11 9 8 7 6 6 6 7 8 7 7 8 8 8 7 7 6 4 4 5 7 6 7 7 7 9 9 10 10 10 12 13 12 10 10 10 8 5 3 3 5 5 3 3 2 2 3 5 6 4 8 13 15 18 20 19 21 26 27 27 26 26 23 16 9 9 10 6 4 3 2 4 7 10 14 16 14 13 13 13 14 18 23 27 29 30 31 30
10 8 8 8 5 5 6 7 8 6 6 7 6 6 6 6 6 4 3 4 5 5 5 6 6 7 7 8 9 11 12 11 10 10 10 9 8 5 2 2 4 5 2 2 1 1 2 3 4 3 7 11 13 16 19 19 21 25 28 28 27 28 28 21 14 12 13 11 8 4 2 6 8 9 12 15 16 15 13 13 13 14 17 20 24 27 29 31
9 8 9 8 5 4 6 6 6 5 6 6 4 4 4 4 4 4 3 3 4 4 5 6 6 5 5 5 5 6 8 8 8 9 9 7 7 5 2 1 2 4 3 1 0 0 1 2 4 6 6 8 10 12 15 18 21 24 27 28 27 28 29 24 17 14 14 16 15 8 3 7 9 9 11 15 17 16 16 16 16 16 15 15 18 21 24 28
9 8 9 8 5 5 5 6 6 6 6 5 4 3 2 2 3 3 4 3 3 3 4 5 6 5 4 3 1 3 4 5 7 8 7 7 6 5 3 0 2 3 3 2 0 1 1 0 4 6 6 6 6 8 11 14 17 19 23 26 27 27 27 22 17 14 12 14 17 12 6 7 9 9 10 15 18 18 18 19 18 17 15 14 15 18 21 24
9 8 8 7 6 5 5 6 7 6 6 5 4 3 1 1 2 3 3 2 1 2 2 2 4 5 5 2 1 3 3 4 6 7 7 7 5 4 3 1 0 2 3 2 0 2 2 2 3 5 6 6 7 10 14 15 15 15 18 23 25 27 25 20 17 16 12 12 15 16 14 11 9 8 8 13 17 19 19 20 20 18 16 16 16 18 20 22
9 8 8 7 6 6 6 6 7 7 6 4 4 4 3 2 1 3 2 1 1 1 1 1 2 2 3 3 2 3 3 4 6 8 7 6 4 4 3 2 1 2 2 2 2 4 6 7 6 6 7 6 7 12 16 16 15 15 17 20 22 24 24 22 19 17 15 12 13 16 17 16 13 10 8 10 15 19 20 20 20 18 16 16 16 17 18 19
10 9 9 8 7 6 6 6 7 8 6 4 3 3 3 2 1 2 2 3 3 1 0 0 1 0 1 2 1 2 4 4 6 7 7 5 3 2 2 1 2 3 4 4 5 5 7 10 11 10 8 6 6 9 12 14 15 15 18 19 19 18 20 21 20 19 17 16 14 14 15 16 15 12 9 9 12 16 19 20 19 18 16 14 13 14 17 18
12 9 9 10 8 7 6 6 7 7 6 5 4 4 4 2 0 1 2 5 6 2 2 1 1 1 2 2 1 2 3 3 4 5 5 4 2 1 1 1 1 3 5 6 6 6 8 10 12 12 11 8 5 6 8 10 12 14 17 19 18 17 17 19 18 16 16 17 17 16 14 14 13 11 9 9 10 12 17 20 20 19 16 14 12 12 14 16
14 11 10 10 10 8 7 7 8 7 6 5 4 5 5 4 1 2 4 6 5 1 2 2 2 2 3 3 2 2 4 3 3 4 4 3 2 2 2 2 1 1 3 6 8 8 8 9 10 11 11 9 8 7 5 6 7 11 14 17 18 17 16 16 15 13 13 14 15 16 15 14 14 12 8 9 10 12 17 20 20 19 17 15 13 13 13 13
13 13 12 11 11 10 9 9 9 8 7 5 4 5 6 4 2 2 4 5 4 3 3 3 3 3 3 3 3 1 4 5 4 3 2 2 1 2 3 4 3 2 1 3 7 9 10 9 8 8 8 7 7 7 6 6 6 8 10 12 14 15 15 15 14 13 12 12 13 15 16 15 15 13 12 11 12 13 17 20 20 19 17 16 14 13 13 14
12 13 12 12 12 11 11 10 8 8 7 4 4 5 5 3 2 3 4 4 3 1 1 2 2 2 2 2 1 2 4 5 4 3 1 1 1 3 5 7 6 6 4 0 4 8 11 11 9 8 6 4 5 6 4 5 5 4 3 4 7 10 11 12 14 15 14 13 13 14 15 15 15 15 16 14 14 16 18 19 18 17 17 16 15 14 14 14
Wind_Direction
332 330 329 328 327 326 324 322 319 316 311 306 297 286 278 270 261 250 243 240 237 235 236 236 237 238 238 236 233 229 226 223 221 213 201 204 207 210 215 214 215 213 209 212 214 216 216 207 201 195 177 173 181 164 120 163 187 166 147 173 179 173 184 194 187 182 183 178 169 162 161 166 167 156 150 154 154 143 144 147 150 164 165 164 174 167 156 153
334 332 330 329 328 325 323 320 318 315 310 305 299 291 281 271 264 256 249 243 238 234 233 233 235 237 238 236 233 230 226 223 220 205 204 212 210 213 217 215 217 214 209 210 212 216 214 205 197 185 175 176 176 164 125 145 157 153 150 166 173 172 181 187 186 182 181 179 169 160 162 166 166 161 159 164 163 148 139 145 148 162 166 167 173 167 158 155
336 333 331 329 327 325 322 320 317 314 310 306 301 295 287 276 263 257 253 248 242 237 232 229 231 233 235 236 234 231 225 223 218 203 212 218 211 215 218 214 215 212 208 205 207 209 201 191 188 182 180 177 170 167 146 151 154 153 151 158 171 173 176 179 181 181 181 180 170 162 164 163 163 165 164 167 167 153 135 145 150 159 167 169 170 166 159 156
336 333 330 327 324 321 319 317 315 313 310 307 303 298 292 283 271 261 254 251 246 240 234 228 226 228 231 233 233 231 225 223 216 207 216 218 208 212 213 209 208 205 204 200 199 198 190 182 177 178 181 173 163 158 147 148 145 152 153 157 168 167 172 176 177 180 183 181 174 165 164 162 162 165 165 167 169 156 135 143 153 154 166 170 168 166 159 155
336 333 329 326 322 319 317 315 313 311 309 306 303 300 296 289 281 270 260 253 247 242 237 230 225 224 225 227 230 230 224 223 217 209 216 216 206 205 203 203 203 202 203 200 197 192 186 182 176 175 170 158 157 151 144 142 134 146 149 146 158 162 169 176 175 179 184 182 177 170 167 164 162 162 161 163 165 155 140 148 157 145 160 174 169 164 158 154
337 334 330 326 323 320 317 314 312 310 308 305 301 299 296 293 287 279 271 259 249 242 237 232 226 222 221 221 224 227 222 219 214 209 213 213 206 202 198 198 200 202 202 200 199 191 185 182 178 172 162 155 155 145 138 136 130 141 145 147 157 163 169 172 173 180 185 183 179 175 171 168 164 163 160 157 156 156 150 155 160 146 158 176 171 163 156 152
337 334 330 326 323 320 318 316 313 311 307 303 300 297 294 292 289 284 278 268 256 244 237 233 227 222 219 217 218 221 220 216 212 208 210 209 204 199 199 198 198 204 203 198 199 192 185 184 177 164 157 158 153 141 134 128 129 135 139 149 154 160 166 169 173 181 185 184 181 177 175 171 166 165 159 151 153 157 157 161 166 153 160 177 174 163 155 152
336 333 329 325 322 320 319 317 315 312 308 303 299 296 293 291 289 286 279 273 262 248 238 232 227 222 218 215 214 215 216 215 211 207 206 205 201 198 201 201 196 202 202 194 198 194 186 183 173 159 154 158 150 142 137 123 126 133 137 149 155 161 163 166 174 182 184 184 183 179 177 172 165 163 154 149 155 158 158 162 164 153 160 176 174 163 157 155
335 331 326 324 322 321 322 320 317 313 309 303 297 295 292 290 289 287 281 274 265 253 241 232 228 224 218 214 213 210 211 213 209 205 203 200 197 196 201 202 199 201 197 189 192 192 186 179 169 159 156 159 154 148 139 121 128 140 144 150 158 166 165 166 174 181 184 185 185 181 177 172 167 161 154 156 160 161 162 160 153 152 160 175 173 165 160 158
335 330 326 324 323 324 325 323 320 315 310 303 297 293 290 289 288 287 284 276 265 255 244 233 227 225 221 214 212 210 207 209 207 202 199 195 193 195 198 199 199 201 196 188 188 187 182 173 167 164 162 162 158 150 138 131 147 155 157 157 156 166 170 169 173 177 180 185 187 185 178 172 169 163 159 163 162 163 167 162 153 154 162 175 172 167 163 161
335 331 328 326 326 327 327 325 323 320 316 308 300 294 290 288 288 288 287 282 269 257 246 234 225 224 223 216 213 212 207 205 205 200 196 193 190 192 195 196 195 196 195 187 185 184 176 171 171 169 164 162 159 151 144 154 157 150 159 167 161 163 169 169 172 176 179 184 187 187 180 173 172 165 163 166 163 163 167 164 160 158 165 175 172 169 167 166
337 334 330 329 329 330 329 327 326 324 320 315 308 300 295 292 290 290 290 286 274 260 248 235 224 220 222 217 214 212 206 202 202 198 194 192 190 189 190 192 190 188 191 186 184 185 177 173 173 168 164 165 165 165 166 161 147 142 159 167 165 164 168 171 175 178 182 186 185 182 180 179 177 167 165 169 164 161 163 164 165 162 166 174 173 172 172 171
338 335 331 330 330 332 331 330 329 326 322 320 317 311 306 300 296 296 294 289 277 263 250 235 223 217 218 218 215 211 204 202 201 197 194 193 192 190 189 190 186 182 183 184 186 188 180 175 172 165 164 166 171 172 163 155 140 143 159 165 171 169 167 172 177 181 184 187 185 179 181 185 183 171 167 173 171 165 162 163 167 166 168 173 174 175 175 174
338 334 331 329 330 333 333 332 330 326 324 323 321 320 316 309 306 304 298 289 277 264 252 237 223 213 214 218 216 209 203 202 199 195 194 194 193 192 191 190 186 182 181 181 183 183 180 178 171 162 162 165 169 157 150 155 150 148 159 171 178 172 170 173 176 180 182 184 184 183 185 189 187 178 173 177 178 173 165 164 168 169 169 173 175 178 178 175
337 333 331 329 330 333 336 335 331 327 326 325 324 322 319 315 310 306 300 289 275 263 252 239 224 213 213 216 212 206 202 202 198 192 191 193 193 192 193 192 188 184 183 181 177 174 176 178 171 163 164 166 165 157 157 165 166 165 167 179 182 172 172 176 177 179 180 180 183 188 191 193 192 183 177 179 181 178 171 168 170 171 172 174 178 180 178 175
334 331 330 329 330 334 338 337 332 328 328 327 327 324 320 318 313 306 298 287 277 265 253 241 224 212 212 212 207 202 197 198 196 190 189 190 191 191 191 193 191 188 186 181 175 172 175 177 174 171 168 168 168 162 163 169 179 185 178 181 188 180 174 181 184 180 180 182 184 192 196 197 197 186 176 178 180 178 175 173 172 172 175 177 181 182 178 175
331 330 330 329 331 334 338 337 331 328 330 330 328 324 320 322 322 315 302 289 284 274 258 242 222 208 208 206 199 196 193 194 195 192 190 190 191 191 190 192 192 191 188 182 175 173 176 177 177 178 172 173 176 167 166 179 188 193 191 188 193 192 187 190 192 183 180 185 188 193 198 199 199 188 177 176 177 175 175 176 175 174 176 181 183 183 179 176
329 329 329 329 331 334 336 336 332 328 330 330 326 326 326 328 329 323 309 293 288 285 263 237 216 197 192 190 185 187 188 191 195 195 196 195 191 191 191 191 193 192 188 183 179 176 178 179 180 184 179 180 185 176 177 194 191 191 196 192 193 197 198 202 200 187 179 183 190 194 198 201 198 190 181 177 177 174 172 175 179 179 179 184 186 184 180 178
328 327 329 329 332 336 338 337 335 330 331 332 333 337 340 337 329 316 305 294 290 284 258 227 199 185 179 176 173 176 179 183 190 195 201 201 194 192 191 191 192 193 190 185 181 178 179 180 184 187 184 187 193 186 182 187 190 198 199 196 201 200 205 217 208 190 178 179 190 196 201 204 200 193 187 181 179 176 174 175 181 185 184 186 188 186 182 180
326 327 329 330 333 340 341 339 342 340 338 340 344 348 348 348 340 315 297 285 280 264 243 221 188 182 174 167 167 169 171 174 182 193 202 202 197 195 193 191 189 189 192 189 183 180 181 185 189 187 186 191 195 189 184 178 196 208 201 198 207 204 212 228 205 184 180 180 189 200 206 207 204 200 195 188 184 184 182 179 181 186 188 189 189 188 184 181
325 326 329 331 337 343 344 343 352 354 348 349 352 353 355 2 6 359 348 280 273 260 219 202 175 172 168 166 167 167 166 169 176 190 199 198 196 196 195 194 189 185 190 192 186 183 186 193 191 185 187 193 187 184 190 193 189 194 198 196 197 201 210 222 200 182 182 185 193 204 208 210 213 210 205 199 193 191 190 186 183 186 188 189 190 189 185 184
325 325 328 333 339 344 346 347 357 358 355 354 353 358 7 16 18 13 17 5 292 134 151 156 152 162 167 168 170 166 165 170 173 180 188 189 189 193 196 194 189 186 186 189 188 185 192 198 191 185 190 190 179 183 188 178 170 179 198 198 190 197 204 210 199 182 185 195 199 205 206 208 214 214 211 207 202 198 196 191 185 185 188 188 188 188 186 189
325 323 328 335 340 341 343 348 353 355 354 352 355 11 23 25 26 21 21 51 98 115 127 131 138 156 166 170 173 167 167 173 171 169 173 178 182 188 195 192 186 186 184 186 188 187 195 199 189 186 194 188 180 187 189 178 177 186 204 205 199 203 209 210 201 186 192 203 204 206 209 211 214 213 208 206 205 202 200 195 188 186 187 187 187 186 189 194
326 322 327 336 342 336 332 347 352 353 354 357 16 34 36 30 29 32 47 81 108 117 125 132 139 155 162 168 174 170 171 176 171 167 165 166 175 182 190 189 184 184 185 186 190 191 197 198 190 188 192 188 184 191 197 193 199 214 218 221 220 212 204 204 205 198 197 206 210 205 203 211 217 215 209 205 203 201 201 197 190 186 184 185 188 188 192 198
326 322 325 336 347 343 346 359 2 10 22 35 46 43 38 33 36 56 71 91 116 121 125 131 136 149 142 144 170 175 175 176 171 166 163 159 171 179 179 181 180 183 185 185 190 196 200 199 193 192 193 191 190 196 203 206 218 232 232 232 222 209 208 210 211 206 195 204 215 205 193 206 215 218 215 209 205 201 202 201 194 188 185 186 188 188 192 197
328 324 323 337 3 6 5 16 31 47 53 51 47 37 33 35 48 76 79 93 118 117 114 116 117 133 121 113 155 167 168 173 169 161 160 153 163 180 176 175 179 183 185 186 191 198 201 200 196 198 200 197 197 200 206 212 223 237 237 225 208 199 210 221 218 205 191 203 217 207 198 197 206 214 219 213 209 204 201 200 195 191 189 188 187 186 190 195
331 327 322 343 18 28 44 63 69 66 54 44 36 28 33 43 66 91 88 101 119 103 94 95 92 120 120 121 137 147 164 172 167 160 165 160 160 179 179 177 180 183 187 189 195 204 203 199 197 202 205 207 207 204 204 211 222 234 235 227 224 208 206 223 219 209 206 212 207 203 206 195 193 210 219 216 213 208 202 198 193 192 192 189 185 182 186 191
334 330 324 2 38 65 86 89 78 61 46 39 32 27 37 55 85 103 94 105 116 78 82 87 99 123 127 134 133 136 167 169 165 164 169 166 161 174 182 182 183 185 192 194 196 210 209 204 202 203 209 214 215 210 205 210 221 230 237 238 237 222 211 215 216 217 221 218 190 193 204 207 194 215 221 219 217 212 204 197 191 192 191 185 179 175 177 184
337 332 326 50 83 101 102 89 68 52 43 33 26 27 39 63 95 99 79 92 108 70 72 92 108 130 139 142 134 127 149 157 163 169 169 170 170 173 182 188 187 189 200 203 203 212 212 209 209 210 216 219 218 218 215 218 227 228 231 231 207 196 201 202 215 224 221 220 206 194 195 193 207 216 216 217 219 216 207 198 193 192 188 181 173 167 168 174
340 333 327 105 112 115 103 77 58 48 37 24 22 35 47 66 87 87 73 74 90 85 101 109 102 128 146 147 134 122 138 149 154 165 171 174 174 174 176 183 190 197 209 212 212 215 212 207 210 212 217 218 218 223 223 224 230 224 211 180 157 173 199 201 214 219 212 228 238 210 200 198 204 210 210 213 215 213 209 203 197 193 188 183 175 168 167 167
344 338 140 125 123 118 94 69 54 41 31 22 25 48 59 69 69 66 66 38 49 110 133 148 117 121 150 158 146 124 139 151 149 164 176 178 175 170 169 174 183 190 203 212 216 219 216 211 211 210 212 212 211 216 218 221 223 219 211 187 146 150 183 183 199 208 210 220 298 222 206 204 212 210 208 214 216 212 213 209 202 198 193 186 180 174 170 167
354 131 140 129 123 111 86 69 54 44 44 47 59 69 72 73 60 48 45 32 35 113 156 176 158 142 160 173 175 158 159 164 162 173 179 181 180 174 167 172 171 173 191 205 214 224 222 221 217 209 208 208 204 206 206 207 212 212 202 187 158 142 169 163 184 215 243 235 264 308 196 200 220 222 205 213 219 219 222 216 207 206 201 193 188 180 173 169
140 140 139 128 117 102 86 74 63 59 64 78 88 83 79 78 53 37 40 30 5 169 160 166 169 163 162 179 192 183 156 163 163 172 176 177 180 183 181 178 173 169 185 193 204 223 223 224 222 213 209 205 200 203 200 190 193 197 188 180 172 156 166 181 200 253 261 238 252 256 196 199 229 229 219 222 229 226 223 217 209 208 206 202 196 188 180 174
153 143 137 127 117 102 91 83 74 74 82 91 101 93 79 71 42 35 37 28 28 100 150 158 164 155 142 165 182 164 153 151 141 161 172 174 177 188 196 193 190 193 197 193 208 220 212 218 219 213 211 207 202 205 208 200 195 195 195 193 188 182 178 176 201 227 174 149 185 191 188 208 216 217 227 231 233 227 217 211 207 207 206 205 204 198 189 182
159 149 139 129 122 109 98 93 85 91 99 95 98 89 72 56 32 33 31 27 41 88 146 154 153 144 126 126 150 159 158 146 144 155 166 174 182 193 207 214 213 216 227 230 228 225 219 227 219 211 210 209 205 205 209 208 203 203 204 203 197 198 209 223 211 209 145 119 147 174 203 234 219 218 233 233 231 223 211 207 206 207 204 202 206 205 198 190
164 158 150 139 132 120 109 104 100 108 112 105 96 76 69 59 42 39 34 31 55 113 138 145 150 147 130 122 139 147 139 138 147 152 152 165 179 184 203 221 223 223 231 234 228 223 225 222 205 205 209 209 207 208 207 202 201 202 201 200 201 208 220 233 196 170 168 167 177 192 226 248 238 240 240 235 236 222 209 204 203 205 205 203 205 206 203 198
168 167 162 150 142 132 119 111 108 110 110 118 111 83 74 65 53 49 43 36 60 134 141 137 140 144 136 134 146 143 130 135 146 151 148 148 139 135 157 186 209 220 226 230 232 239 241 222 191 193 203 203 200 205 211 213 212 205 203 205 204 209 222 224 183 149 188 221 194 200 231 243 236 246 239 232 230 214 205 202 200 203 205 206 206 205 205 204
172 172 167 157 149 139 124 117 113 109 107 111 106 88 74 68 62 58 53 43 55 140 169 151 131 134 137 141 158 164 148 145 152 159 154 141 118 114 125 130 165 202 210 218 226 231 246 235 205 189 198 200 198 200 205 213 219 216 215 216 209 203 211 204 190 188 200 210 189 198 234 239 231 237 246 250 233 209 201 199 199 202 205 206 207 207 208 207
175 169 163 156 149 140 126 118 117 117 113 104 96 86 74 72 65 57 53 43 50 86 154 147 130 128 132 138 159 177 175 166 165 162 151 138 127 118 104 85 115 172 178 190 214 224 229 233 211 193 197 198 200 203 202 206 212 213 219 221 213 208 203 193 196 210 199 194 197 185 223 240 234 235 241 253 246 213 200 199 200 202 203 206 210 212 211 210
171 161 158 153 145 139 129 118 119 124 118 98 90 90 82 74 64 53 48 41 48 69 91 116 127 131 134 139 151 163 168 167 164 158 148 141 135 128 104 67 72 125 148 163 197 225 226 225 217 194 197 197 199 206 207 206 206 202 204 210 208 205 201 194 197 202 194 178 177 188 218 235 233 230 228 238 244 220 200 199 202 204 205 209 215 217 216 214
167 162 161 155 144 142 136 127 126 120 109 100 94 91 83 77 71 53 40 39 47 62 76 92 119 131 134 140 145 153 154 154 159 155 145 143 137 123 111 54 53 83 120 155 188 236 230 224 231 217 197 197 201 207 210 211 208 202 204 207 205 199 194 194 197 196 195 182 166 194 257 246 235 228 221 225 232 219 201 195 201 208 210 212 216 220 221 221
170 171 171 163 152 151 149 141 132 116 106 109 100 89 83 77 74 60 40 45 48 59 75 85 109 128 134 137 140 145 146 149 157 150 141 149 152 124 84 29 34 55 87 125 149 244 236 224 241 241 200 196 201 205 204 206 209 207 209 211 209 207 204 204 201 188 191 204 201 196 254 260 246 231 221 220 221 216 204 192 195 206 212 215 218 223 226 226
179 181 179 175 166 164 164 152 137 119 116 125 111 95 88 71 70 75 55 43 50 67 86 90 101 122 134 137 140 143 141 140 146 144 138 145 156 147 96 21 19 24 38 108 95 279 245 233 224 191 181 188 194 198 198 201 207 210 211 210 210 212 212 215 220 208 202 207 205 195 233 243 243 235 222 220 220 215 199 187 188 195 204 211 215 218 222 224
193 191 186 188 193 183 173 166 156 140 135 142 135 121 101 64 61 75 54 41 60 75 87 92 88 97 118 130 146 157 152 144 140 142 142 140 142 142 120 3 338 348 350 351 356 217 230 230 186 158 155 168 176 184 190 195 202 209 213 211 209 212 214 218 223 218 210 210 210 213 233 235 240 240 224 220 221 213 197 188 187 188 196 203 206 209 212 215
199 196 192 196 203 199 189 181 174 162 156 158 153 146 125 48 50 57 52 55 75 77 79 88 83 83 97 100 117 159 165 166 157 148 143 137 133 132 119 61 285 304 321 323 260 129 59 255 191 177 172 167 166 170 175 181 188 201 211 210 207 206 207 210 210 203 204 213 214 218 231 239 243 241 225 219 219 213 202 194 191 191 197 201 203 206 209 209
202 205 203 202 202 204 201 191 183 180 185 187 178 174 170 90 57 36 33 38 76 90 76 84 87 81 81 75 84 125 136 156 158 151 142 135 132 133 127 112 245 279 295 299 271 119 114 126 175 187 184 172 164 170 175 178 182 189 199 204 206 206 206 209 211 207 208 211 213 221 232 240 240 236 225 219 217 215 208 201 197 197 200 201 202 206 207 207
208 212 209 205 205 205 199 195 195 196 202 205 186 179 184 170 35 9 16 25 66 112 94 115 126 78 61 61 72 112 125 133 143 146 142 136 132 132 132 134 192 237 247 222 138 126 124 120 122 139 158 171 176 175 177 183 188 192 192 193 200 206 210 215 220 221 219 216 217 224 231 237 243 248 247 229 219 216 209 202 200 201 203 203 201 202 202 200
213 215 210 206 205 199 195 195 196 198 205 211 202 198 203 202 343 15 38 13 356 326 234 157 172 194 60 63 44 111 128 129 137 142 140 136 134 128 137 171 210 212 208 189 167 153 135 121 114 112 116 139 176 184 182 183 189 195 195 192 192 199 207 213 219 225 224 223 229 233 232 239 246 249 249 240 228 218 205 197 197 199 200 199 194 194 195 195
217 219 214 211 207 199 198 195 190 195 204 210 223 227 207 184 306 323 341 343 337 301 233 219 162 140 104 82 62 181 165 149 143 144 141 137 129 102 95 171 181 186 197 194 182 167 144 129 121 111 103 103 130 166 183 189 193 196 197 196 195 196 201 207 214 221 221 222 229 236 237 241 244 246 247 242 234 216 198 192 194 195 195 194 190 188 190 192
219 222 218 213 209 203 199 190 184 187 194 200 222 219 197 188 230 283 321 343 355 55 166 166 124 105 96 81 73 200 205 195 168 150 132 112 95 68 49 38 76 139 172 187 187 178 160 149 138 124 114 102 100 114 142 170 192 198 194 194 198 197 196 200 205 210 216 218 221 225 230 234 235 234 231 226 225 214 198 191 192 195 196 196 194 193 195 198
217 219 216 212 206 199 195 190 184 187 189 191 206 202 194 202 249 305 337 2 29 75 126 135 115 95 79 63 52 198 204 198 191 176 143 103 69 29 12 359 347 352 60 172 190 190 178 168 161 147 132 116 107 108 119 140 167 189 188 186 194 199 200 204 206 206 213 220 220 219 222 228 230 224 214 212 217 214 201 190 189 194 197 200 200 201 203 204
212 211 211 211 205 197 196 196 192 196 194 182 192 202 202 214 257 331 358 16 26 36 140 156 152 124 80 51 58 179 193 197 197 187 156 84 14 355 345 337 333 332 335 302 192 192 186 182 183 178 171 153 132 117 114 146 161 174 174 162 183 197 200 205 210 209 210 218 226 225 224 229 232 224 214 209 208 207 199 189 188 194 199 202 204 205 207 207
Height
3139 3139 3138 3138 3137 3137 3137 3136 3136 3136 3136 3136 3136 3136 3136 3136 3136 3136 3137 3137 3137 3138 3139 3140 3140 3141 3141 3142 3142 3143 3144 3146 3147 3148 3150 3149 3149 3150 3151 3152 3153 3155 3158 3159 3161 3163 3164 3166 3166 3167 3168 3168 3168 3168 3168 3168 3168 3168 3168 3169 3169 3170 3170 3171 3171 3173 3174 3176 3178 3180 3181 3183 3184 3185 3185 3187 3188 3190 3191 3191 3193 3195 3197 3199 3201 3202 3202 3203
3139 3138 3137 3137 3137 3136 3136 3135 3135 3135 3134 3134 3135 3134 3134 3134 3135 3135 3135 3135 3136 3136 3137 3138 3139 3139 3140 3140 3141 3142 3143 3144 3145 3148 3148 3147 3148 3149 3150 3152 3153 3155 3157 3159 3161 3163 3164 3166 3166 3167 3168 3168 3168 3168 3168 3167 3168 3168 3168 3168 3169 3169 3170 3170 3171 3173 3174 3177 3178 3180 3182 3183 3185 3186 3186 3188 3189 3191 3192 3192 3193 3196 3197 3199 3201 3202 3203 3204
3138 3137 3137 3136 3136 3135 3135 3134 3134 3133 3133 3133 3132 3133 3133 3133 3133 3133 3133 3134 3134 3135 3135 3136 3137 3138 3138 3139 3140 3141 3142 3143 3144 3146 3145 3146 3148 3149 3150 3151 3153 3154 3156 3158 3160 3162 3164 3165 3166 3167 3167 3168 3168 3168 3167 3167 3167 3167 3167 3168 3168 3169 3169 3170 3171 3173 3175 3177 3179 3181 3182 3184 3185 3187 3188 3189 3191 3192 3193 3194 3195 3196 3198 3199 3201 3203 3204 3205
3138 3137 3136 3135 3134 3134 3133 3133 3133 3133 3132 3131 3131 3131 3131 3131 3131 3131 3132 3132 3133 3133 3134 3134 3135 3136 3137 3138 3139 3140 3141 3141 3143 3144 3144 3145 3147 3148 3150 3151 3152 3153 3155 3157 3158 3160 3162 3164 3165 3166 3167 3168 3168 3167 3167 3167 3167 3167 3167 3167 3168 3168 3169 3170 3171 3173 3175 3177 3179 3181 3183 3184 3185 3187 3189 3190 3191 3193 3194 3196 3197 3198 3199 3200 3202 3203 3205 3206
3137 3136 3135 3134 3133 3133 3132 3132 3131 3131 3131 3130 3130 3129 3129 3129 3129 3129 3130 3130 3131 3131 3132 3132 3133 3133 3134 3136 3137 3138 3139 3140 3141 3142 3143 3144 3146 3147 3149 3150 3152 3153 3154 3155 3157 3159 3161 3163 3164 3165 3166 3167 3168 3167 3167 3167 3167 3167 3167 3167 3168 3168 3169 3170 3171 3173 3175 3177 3179 3182 3183 3185 3186 3187 3189 3191 3192 3194 3195 3196 3198 3199 3201 3202 3203 3204 3206 3207
3136 3135 3134 3133 3132 3131 3131 3130 3130 3130 3129 3129 3129 3128 3127 3127 3128 3128 3128 3129 3129 3130 3130 3130 3131 3132 3132 3134 3135 3137 3138 3139 3139 3140 3141 3143 3145 3146 3148 3149 3151 3151 3153 3154 3156 3158 3160 3162 3163 3165 3166 3167 3167 3167 3167 3167 3167 3167 3167 3167 3168 3168 3169 3170 3171 3173 3175 3177 3179 3182 3184 3185 3187 3188 3189 3191 3193 3194 3195 3196 3198 3199 3201 3203 3205 3206 3207 3208
3135 3134 3133 3132 3131 3130 3130 3129 3129 3128 3128 3127 3127 3127 3126 3126 3126 3126 3127 3127 3128 3128 3128 3128 3129 3130 3130 3132 3133 3135 3136 3137 3138 3139 3140 3141 3143 3145 3146 3148 3150 3151 3152 3154 3155 3157 3159 3161 3163 3164 3166 3167 3167 3167 3167 3167 3167 3167 3167 3168 3168 3168 3169 3170 3172 3173 3175 3178 3180 3182 3184 3186 3187 3189 3190 3191 3193 3194 3195 3197 3198 3199 3201 3204 3206 3207 3208 3209
3134 3133 3132 3131 3130 3129 3129 3128 3128 3127 3127 3126 3126 3125 3125 3124 3124 3125 3125 3125 3126 3126 3127 3127 3127 3128 3129 3130 3131 3133 3134 3135 3137 3138 3139 3140 3142 3144 3145 3147 3148 3150 3152 3154 3156 3158 3160 3161 3163 3164 3166 3167 3167 3167 3167 3167 3167 3168 3168 3168 3168 3169 3169 3171 3172 3174 3176 3178 3181 3183 3185 3186 3188 3189 3191 3192 3193 3194 3196 3198 3199 3200 3202 3205 3207 3208 3209 3210
3133 3132 3131 3130 3129 3128 3128 3127 3127 3126 3126 3125 3124 3124 3123 3123 3123 3123 3123 3124 3124 3125 3125 3126 3126 3126 3127 3128 3129 3131 3132 3133 3135 3136 3137 3139 3141 3143 3144 3146 3148 3149 3151 3153 3155 3157 3159 3162 3163 3164 3165 3166 3166 3166 3167 3167 3168 3168 3168 3168 3168 3169 3170 3171 3172 3174 3176 3178 3180 3183 3185 3187 3188 3189 3191 3192 3193 3195 3196 3198 3199 3200 3203 3205 3207 3209 3210 3211
3133 3131 3130 3129 3129 3128 3127 3126 3126 3125 3124 3124 3123 3122 3122 3122 3121 3121 3121 3122 3122 3123 3123 3124 3125 3125 3125 3126 3128 3129 3130 3131 3133 3135 3136 3138 3139 3141 3143 3145 3148 3149 3151 3152 3154 3157 3159 3162 3164 3164 3165 3166 3166 3166 3167 3167 3168 3168 3169 3169 3168 3169 3171 3172 3173 3174 3176 3178 3180 3183 3185 3187 3188 3190 3191 3192 3194 3195 3197 3198 3200 3201 3204 3206 3208 3209 3211 3212
3132 3131 3130 3129 3128 3127 3126 3125 3124 3124 3123 3122 3122 3121 3121 3120 3120 3120 3120 3120 3121 3121 3122 3122 3123 3124 3124 3125 3126 3127 3128 3130 3132 3133 3135 3136 3138 3140 3143 3145 3147 3149 3151 3152 3154 3157 3159 3161 3163 3164 3165 3166 3166 3166 3167 3167 3168 3168 3169 3169 3169 3170 3171 3172 3173 3175 3176 3178 3180 3183 3185 3187 3189 3190 3192 3193 3194 3196 3197 3199 3200 3202 3204 3207 3208 3210 3211 3212
3131 3130 3129 3128 3127 3126 3126 3124 3123 3122 3122 3121 3120 3120 3119 3119 3119 3119 3119 3119 3119 3120 3120 3121 3121 3122 3123 3124 3125 3125 3127 3128 3130 3132 3134 3135 3137 3139 3141 3144 3146 3148 3150 3152 3154 3156 3158 3160 3162 3164 3165 3165 3166 3166 3166 3167 3168 3168 3169 3170 3169 3170 3172 3173 3174 3176 3177 3178 3180 3183 3186 3187 3189 3190 3192 3194 3195 3196 3197 3199 3201 3202 3205 3207 3209 3210 3211 3213
3130 3129 3128 3127 3126 3126 3125 3123 3122 3121 3120 3120 3119 3119 3118 3118 3118 3118 3118 3118 3118 3118 3119 3119 3120 3121 3122 3123 3123 3124 3126 3127 3129 3131 3133 3134 3136 3137 3139 3142 3145 3147 3149 3151 3153 3156 3158 3159 3161 3163 3164 3165 3165 3166 3166 3167 3168 3169 3169 3170 3170 3170 3172 3173 3174 3176 3177 3178 3180 3182 3184 3186 3188 3190 3192 3194 3195 3196 3197 3199 3201 3203 3205 3207 3209 3210 3212 3213
3129 3128 3127 3126 3126 3125 3124 3123 3121 3120 3120 3119 3118 3118 3117 3117 3117 3117 3117 3117 3117 3117 3117 3118 3118 3119 3120 3121 3122 3124 3125 3126 3128 3130 3132 3133 3135 3137 3138 3141 3143 3145 3147 3148 3151 3154 3157 3159 3161 3163 3164 3164 3164 3165 3166 3167 3168 3169 3169 3170 3171 3171 3172 3173 3174 3175 3177 3178 3180 3182 3183 3185 3187 3190 3192 3194 3195 3197 3197 3199 3201 3204 3205 3207 3209 3210 3212 3214
3129 3128 3127 3126 3125 3124 3123 3122 3121 3120 3119 3118 3118 3117 3116 3116 3116 3116 3115 3115 3115 3116 3116 3116 3117 3118 3119 3120 3121 3123 3124 3126 3127 3129 3131 3133 3134 3136 3138 3140 3143 3145 3146 3147 3149 3153 3156 3158 3160 3162 3163 3163 3164 3166 3166 3167 3167 3168 3169 3171 3172 3172 3172 3174 3174 3175 3176 3178 3180 3181 3183 3185 3187 3189 3192 3194 3195 3197 3198 3199 3201 3204 3206 3207 3209 3211 3212 3214
3128 3127 3126 3125 3124 3123 3123 3122 3120 3119 3118 3118 3117 3116 3116 3115 3115 3115 3115 3114 3114 3114 3115 3115 3116 3117 3118 3119 3120 3122 3123 3125 3126 3128 3130 3132 3133 3136 3138 3140 3142 3144 3145 3147 3149 3152 3154 3157 3159 3161 3162 3163 3164 3166 3166 3166 3167 3168 3169 3170 3172 3172 3173 3174 3174 3175 3176 3178 3179 3181 3183 3184 3186 3189 3191 3193 3195 3196 3198 3199 3201 3204 3206 3208 3209 3211 3212 3214
3128 3127 3126 3125 3124 3123 3122 3121 3120 3119 3118 3117 3116 3116 3115 3115 3114 3114 3114 3113 3113 3113 3114 3114 3115 3116 3117 3118 3119 3121 3122 3123 3125 3127 3129 3131 3132 3135 3137 3139 3142 3143 3145 3147 3149 3151 3154 3156 3158 3160 3161 3163 3164 3165 3166 3166 3166 3166 3168 3170 3171 3171 3172 3173 3174 3175 3176 3177 3179 3181 3182 3184 3186 3188 3191 3193 3195 3196 3198 3200 3202 3204 3206 3208 3209 3211 3213 3214
3127 3126 3125 3124 3123 3122 3121 3120 3119 3118 3117 3116 3116 3115 3115 3114 3114 3114 3113 3113 3113 3113 3113 3114 3114 3116 3117 3117 3118 3120 3121 3123 3125 3127 3128 3130 3132 3134 3136 3139 3141 3143 3145 3147 3149 3151 3153 3156 3158 3159 3161 3162 3163 3164 3166 3166 3166 3166 3168 3169 3170 3171 3171 3172 3173 3174 3175 3176 3178 3180 3182 3184 3186 3188 3191 3193 3195 3196 3198 3200 3202 3204 3206 3208 3209 3211 3213 3215
3126 3126 3125 3124 3123 3122 3120 3119 3119 3117 3117 3116 3115 3115 3114 3114 3113 3113 3113 3112 3112 3113 3113 3113 3114 3115 3116 3117 3118 3119 3121 3123 3125 3126 3128 3129 3132 3134 3136 3138 3140 3143 3145 3146 3148 3150 3152 3155 3156 3158 3160 3161 3162 3164 3166 3166 3167 3167 3168 3169 3170 3170 3171 3171 3172 3174 3175 3176 3178 3180 3182 3183 3185 3188 3190 3192 3194 3196 3198 3199 3201 3203 3205 3207 3209 3211 3213 3215
3126 3125 3124 3123 3122 3121 3120 3119 3118 3117 3116 3116 3115 3115 3114 3114 3113 3112 3112 3111 3111 3112 3113 3113 3114 3115 3116 3117 3118 3119 3122 3124 3125 3126 3127 3129 3131 3133 3135 3137 3139 3142 3144 3146 3148 3150 3152 3154 3155 3157 3159 3160 3162 3164 3166 3166 3167 3168 3168 3169 3170 3170 3172 3172 3172 3174 3175 3176 3178 3180 3182 3183 3185 3187 3189 3192 3193 3195 3197 3198 3200 3202 3205 3207 3209 3211 3213 3215
3125 3125 3124 3123 3122 3121 3120 3119 3118 3117 3117 3116 3115 3115 3114 3113 3113 3112 3111 3111 3111 3112 3112 3113 3114 3115 3116 3117 3118 3120 3122 3124 3125 3126 3127 3128 3130 3133 3135 3136 3138 3140 3143 3146 3148 3150 3152 3153 3154 3157 3159 3161 3163 3165 3166 3166 3167 3167 3168 3169 3170 3171 3172 3172 3172 3174 3176 3177 3178 3179 3181 3183 3185 3186 3189 3191 3192 3194 3196 3197 3199 3202 3204 3206 3208 3210 3213 3215
3125 3124 3123 3122 3121 3121 3120 3119 3118 3117 3117 3116 3115 3115 3114 3113 3113 3112 3111 3111 3111 3111 3112 3113 3114 3115 3117 3118 3119 3121 3122 3123 3125 3126 3127 3128 3130 3132 3134 3135 3138 3139 3142 3145 3147 3150 3151 3152 3154 3157 3159 3160 3163 3164 3165 3166 3167 3167 3168 3169 3170 3171 3172 3172 3173 3175 3176 3177 3179 3180 3181 3183 3184 3186 3188 3190 3192 3194 3196 3197 3199 3201 3203 3206 3208 3210 3212 3214
3124 3123 3123 3122 3121 3120 3120 3119 3118 3118 3117 3116 3116 3115 3115 3114 3113 3112 3112 3111 3111 3112 3113 3114 3115 3116 3118 3119 3120 3122 3123 3124 3125 3126 3127 3128 3130 3131 3133 3135 3137 3139 3142 3144 3146 3149 3150 3151 3154 3157 3158 3160 3162 3163 3164 3166 3167 3167 3168 3169 3170 3171 3172 3172 3173 3175 3176 3178 3179 3180 3181 3182 3183 3185 3187 3189 3191 3194 3195 3197 3199 3201 3203 3206 3208 3210 3212 3213
3124 3123 3122 3122 3121 3120 3119 3119 3118 3118 3117 3117 3116 3116 3115 3115 3114 3113 3112 3112 3113 3113 3114 3115 3116 3117 3118 3119 3121 3123 3124 3124 3126 3126 3127 3129 3130 3132 3134 3136 3138 3140 3142 3144 3146 3148 3149 3151 3154 3156 3157 3160 3161 3162 3164 3165 3166 3167 3168 3169 3170 3170 3171 3172 3173 3174 3176 3177 3179 3180 3182 3181 3181 3183 3186 3188 3190 3192 3195 3196 3198 3200 3202 3205 3208 3210 3211 3213
3124 3123 3122 3121 3120 3120 3119 3119 3119 3118 3118 3117 3117 3116 3116 3115 3115 3114 3113 3113 3114 3115 3116 3117 3117 3118 3119 3120 3121 3123 3124 3125 3127 3127 3128 3130 3131 3132 3134 3136 3138 3140 3142 3144 3147 3149 3150 3151 3154 3156 3157 3158 3160 3162 3163 3165 3166 3167 3167 3168 3169 3170 3171 3172 3173 3174 3175 3177 3177 3179 3180 3180 3180 3182 3184 3187 3189 3191 3193 3195 3197 3198 3201 3203 3205 3208 3210 3212
3123 3123 3122 3121 3120 3120 3120 3119 3119 3119 3118 3118 3118 3117 3116 3116 3115 3115 3114 3114 3115 3116 3117 3118 3118 3119 3120 3120 3121 3123 3125 3126 3127 3128 3130 3131 3132 3133 3134 3136 3138 3140 3142 3144 3146 3148 3149 3151 3153 3155 3156 3158 3159 3161 3162 3164 3166 3166 3167 3168 3168 3169 3170 3171 3173 3175 3175 3176 3176 3178 3179 3178 3179 3181 3183 3186 3188 3190 3192 3194 3196 3197 3199 3201 3204 3206 3209 3211
3123 3122 3122 3121 3120 3120 3120 3120 3120 3119 3119 3119 3118 3118 3117 3117 3116 3116 3116 3116 3117 3118 3118 3118 3119 3119 3120 3121 3122 3123 3125 3126 3128 3129 3131 3131 3133 3134 3135 3137 3138 3140 3142 3144 3146 3147 3148 3151 3153 3154 3156 3157 3158 3159 3161 3163 3165 3166 3167 3168 3168 3168 3170 3171 3173 3175 3175 3175 3176 3176 3178 3178 3178 3179 3182 3184 3186 3188 3190 3193 3194 3196 3198 3201 3203 3205 3207 3210
3123 3122 3122 3121 3121 3121 3121 3121 3120 3120 3120 3119 3119 3118 3117 3117 3117 3117 3117 3118 3118 3118 3119 3119 3119 3120 3121 3122 3123 3124 3125 3126 3128 3130 3131 3132 3133 3135 3136 3137 3139 3141 3142 3144 3146 3147 3148 3151 3152 3154 3155 3156 3157 3159 3161 3163 3164 3165 3166 3167 3168 3169 3170 3171 3172 3174 3174 3175 3175 3176 3177 3177 3177 3179 3181 3184 3185 3186 3188 3191 3193 3195 3197 3200 3202 3204 3206 3209
3123 3122 3122 3121 3121 3121 3121 3121 3121 3121 3120 3120 3119 3118 3118 3117 3118 3117 3117 3118 3119 3120 3120 3120 3121 3121 3122 3123 3124 3125 3125 3127 3128 3129 3131 3133 3134 3135 3137 3138 3140 3142 3143 3144 3146 3147 3148 3151 3152 3154 3155 3155 3157 3159 3161 3162 3163 3165 3166 3167 3168 3169 3170 3171 3172 3172 3173 3174 3173 3174 3176 3177 3178 3178 3180 3181 3181 3182 3186 3189 3192 3194 3197 3199 3201 3203 3205 3208
3123 3122 3122 3122 3122 3122 3122 3122 3122 3121 3121 3120 3120 3119 3119 3118 3118 3118 3118 3120 3120 3121 3121 3121 3122 3122 3123 3124 3125 3126 3126 3128 3129 3130 3131 3133 3134 3136 3137 3138 3140 3142 3143 3144 3146 3147 3148 3150 3151 3152 3153 3155 3157 3158 3159 3161 3162 3164 3166 3167 3168 3169 3170 3171 3172 3172 3173 3173 3172 3173 3175 3176 3177 3177 3178 3178 3177 3181 3185 3188 3190 3193 3195 3198 3200 3202 3204 3207
3122 3122 3122 3122 3122 3123 3123 3123 3122 3122 3121 3121 3120 3120 3120 3119 3118 3118 3120 3121 3121 3121 3122 3122 3122 3123 3124 3125 3125 3126 3127 3128 3129 3130 3131 3132 3134 3136 3137 3138 3140 3141 3143 3144 3145 3146 3147 3148 3149 3151 3153 3154 3155 3156 3158 3159 3161 3163 3165 3166 3168 3170 3171 3172 3172 3172 3172 3171 3171 3172 3173 3176 3176 3176 3176 3177 3178 3182 3184 3186 3189 3191 3194 3197 3199 3201 3203 3205
3122 3122 3122 3122 3123 3123 3123 3123 3123 3123 3122 3121 3121 3121 3120 3120 3120 3120 3121 3122 3121 3121 3122 3122 3123 3123 3124 3125 3126 3127 3127 3128 3129 3130 3131 3133 3134 3136 3137 3138 3139 3141 3143 3143 3144 3145 3146 3147 3148 3150 3152 3153 3154 3155 3156 3158 3160 3162 3164 3165 3168 3170 3173 3174 3173 3172 3171 3170 3170 3171 3173 3175 3175 3175 3176 3177 3179 3181 3182 3184 3188 3191 3193 3196 3198 3200 3202 3204
3122 3123 3123 3123 3123 3124 3124 3124 3124 3123 3122 3122 3122 3121 3121 3120 3121 3122 3122 3122 3122 3121 3121 3122 3123 3123 3124 3125 3126 3127 3128 3128 3129 3129 3131 3133 3135 3136 3137 3138 3139 3141 3141 3142 3144 3144 3145 3146 3147 3149 3150 3151 3152 3153 3154 3155 3158 3160 3162 3164 3167 3169 3173 3175 3174 3172 3170 3168 3169 3170 3172 3173 3173 3174 3175 3176 3177 3178 3180 3182 3185 3189 3192 3195 3198 3200 3201 3203
3123 3123 3123 3123 3124 3124 3124 3124 3124 3123 3123 3123 3123 3122 3121 3121 3123 3123 3122 3122 3121 3121 3121 3122 3123 3124 3125 3125 3126 3127 3128 3128 3129 3130 3132 3133 3135 3136 3137 3138 3139 3140 3141 3142 3143 3143 3143 3143 3144 3146 3147 3149 3151 3152 3153 3155 3157 3159 3161 3163 3165 3166 3169 3171 3171 3169 3167 3167 3169 3171 3171 3171 3170 3171 3172 3173 3175 3176 3177 3180 3182 3186 3190 3194 3197 3199 3201 3202
3123 3123 3124 3124 3124 3125 3125 3125 3124 3124 3124 3124 3123 3123 3122 3123 3124 3123 3122 3122 3121 3121 3122 3122 3123 3124 3125 3126 3126 3127 3128 3128 3129 3130 3132 3134 3135 3136 3137 3138 3139 3140 3141 3141 3141 3141 3141 3141 3142 3144 3146 3148 3150 3151 3153 3155 3157 3158 3160 3162 3164 3164 3165 3166 3166 3166 3166 3167 3169 3170 3170 3168 3168 3170 3171 3172 3173 3173 3174 3177 3180 3183 3187 3191 3194 3197 3199 3201
3123 3123 3124 3124 3125 3125 3125 3125 3125 3125 3124 3124 3124 3124 3124 3124 3124 3123 3123 3122 3122 3122 3122 3123 3124 3125 3126 3126 3127 3128 3128 3128 3130 3131 3133 3134 3135 3136 3136 3137 3138 3139 3140 3140 3140 3141 3141 3141 3141 3143 3145 3147 3149 3151 3152 3154 3155 3156 3158 3160 3161 3163 3165 3165 3165 3166 3167 3167 3168 3169 3168 3168 3168 3169 3169 3170 3171 3171 3172 3174 3178 3182 3185 3188 3191 3194 3197 3200
3123 3124 3124 3125 3125 3126 3126 3125 3125 3125 3125 3125 3124 3125 3125 3125 3125 3124 3124 3123 3123 3123 3123 3123 3124 3125 3126 3126 3127 3128 3128 3129 3130 3131 3133 3134 3135 3136 3136 3137 3137 3138 3138 3139 3139 3140 3140 3140 3140 3141 3143 3146 3148 3150 3152 3153 3154 3155 3156 3158 3161 3163 3164 3164 3165 3166 3167 3166 3167 3168 3168 3168 3168 3168 3168 3168 3169 3170 3171 3173 3176 3180 3182 3185 3189 3192 3195 3198
3123 3124 3124 3125 3125 3126 3126 3126 3126 3126 3126 3125 3125 3125 3126 3125 3125 3125 3124 3124 3123 3123 3123 3124 3124 3125 3126 3127 3127 3128 3129 3130 3130 3131 3133 3134 3135 3136 3136 3137 3137 3137 3137 3138 3139 3139 3139 3139 3139 3140 3142 3144 3146 3148 3150 3151 3152 3153 3155 3157 3160 3161 3162 3163 3164 3164 3165 3166 3166 3167 3168 3167 3167 3166 3166 3167 3167 3168 3170 3171 3174 3177 3180 3183 3187 3190 3193 3196
3123 3124 3125 3125 3126 3126 3126 3126 3126 3126 3126 3126 3126 3126 3126 3126 3126 3126 3125 3125 3124 3124 3124 3124 3124 3125 3126 3127 3127 3128 3129 3130 3130 3131 3133 3134 3135 3136 3137 3137 3137 3137 3137 3137 3138 3138 3139 3139 3139 3139 3140 3142 3144 3145 3146 3148 3150 3152 3154 3156 3157 3158 3159 3161 3161 3161 3162 3164 3165 3166 3167 3166 3164 3165 3165 3166 3167 3167 3169 3170 3172 3175 3179 3182 3185 3188 3191 3194
3124 3124 3125 3125 3126 3126 3126 3127 3127 3127 3127 3127 3127 3127 3127 3127 3127 3127 3126 3126 3125 3125 3124 3124 3124 3125 3126 3127 3128 3128 3129 3130 3131 3132 3132 3134 3135 3136 3137 3137 3137 3137 3137 3137 3137 3137 3138 3138 3138 3138 3139 3140 3141 3142 3144 3146 3148 3150 3152 3152 3154 3156 3158 3159 3160 3160 3160 3162 3163 3165 3165 3163 3162 3163 3164 3165 3166 3167 3168 3170 3172 3175 3178 3181 3183 3186 3189 3192
3124 3125 3125 3126 3126 3126 3127 3127 3127 3127 3127 3127 3128 3128 3128 3127 3127 3127 3127 3127 3126 3126 3126 3125 3125 3126 3127 3127 3128 3128 3129 3130 3131 3132 3133 3134 3135 3136 3136 3137 3136 3136 3136 3137 3137 3137 3137 3137 3137 3137 3138 3139 3139 3140 3143 3145 3146 3148 3149 3150 3152 3155 3156 3157 3158 3159 3160 3161 3162 3163 3162 3161 3161 3162 3163 3164 3166 3167 3168 3170 3172 3174 3177 3179 3182 3184 3187 3190
3124 3125 3125 3126 3126 3127 3127 3127 3127 3127 3128 3128 3128 3128 3128 3128 3128 3128 3128 3127 3127 3127 3127 3127 3127 3127 3127 3128 3129 3129 3130 3130 3131 3132 3133 3134 3135 3135 3136 3136 3136 3136 3136 3136 3136 3136 3136 3136 3136 3136 3137 3137 3138 3140 3142 3143 3145 3147 3147 3149 3151 3153 3154 3154 3155 3157 3159 3160 3161 3162 3161 3160 3161 3162 3163 3164 3165 3166 3168 3170 3172 3174 3176 3179 3181 3183 3186 3189
3124 3125 3125 3126 3126 3127 3127 3127 3127 3128 3128 3128 3129 3129 3129 3129 3129 3129 3128 3128 3128 3128 3128 3128 3128 3128 3128 3129 3130 3130 3130 3131 3132 3132 3133 3134 3135 3135 3136 3136 3136 3136 3136 3136 3136 3136 3136 3135 3135 3136 3136 3137 3138 3139 3141 3142 3143 3145 3146 3147 3149 3150 3152 3153 3154 3156 3158 3159 3160 3161 3160 3159 3160 3161 3162 3163 3164 3165 3168 3170 3171 3173 3175 3177 3180 3182 3184 3187
3124 3124 3125 3126 3126 3126 3127 3127 3128 3128 3128 3128 3129 3129 3129 3129 3129 3129 3129 3129 3129 3128 3128 3129 3129 3129 3129 3130 3130 3131 3131 3131 3132 3133 3133 3134 3134 3135 3136 3136 3136 3136 3136 3136 3135 3135 3135 3135 3135 3135 3135 3137 3138 3138 3139 3140 3142 3143 3144 3145 3147 3149 3150 3152 3154 3155 3156 3156 3158 3159 3158 3158 3159 3160 3161 3162 3163 3165 3167 3168 3170 3172 3174 3176 3178 3180 3182 3185
3124 3124 3125 3125 3126 3126 3127 3127 3128 3128 3128 3129 3129 3129 3130 3130 3130 3130 3130 3130 3129 3129 3129 3129 3130 3130 3130 3130 3131 3131 3131 3132 3132 3133 3133 3134 3134 3135 3135 3136 3136 3136 3136 3136 3135 3135 3135 3134 3135 3134 3134 3135 3136 3136 3137 3139 3141 3142 3143 3144 3146 3148 3150 3151 3153 3154 3154 3155 3157 3157 3157 3157 3159 3159 3160 3161 3162 3164 3165 3167 3169 3171 3173 3174 3176 3178 3180 3182
3123 3124 3124 3125 3125 3126 3127 3127 3128 3128 3128 3129 3129 3130 3130 3130 3130 3130 3130 3130 3130 3130 3130 3130 3130 3130 3131 3131 3131 3131 3131 3132 3132 3133 3133 3134 3134 3135 3135 3135 3135 3136 3136 3136 3135 3135 3135 3135 3134 3134 3134 3134 3134 3135 3137 3139 3140 3141 3142 3144 3146 3147 3149 3151 3152 3152 3153 3154 3156 3156 3157 3158 3158 3159 3159 3160 3161 3162 3164 3166 3168 3170 3171 3173 3175 3176 3178 3181
3123 3123 3124 3125 3125 3126 3126 3127 3127 3128 3128 3129 3129 3130 3130 3130 3130 3130 3131 3131 3130 3130 3130 3130 3130 3131 3131 3131 3131 3131 3132 3132 3133 3133 3134 3134 3134 3135 3135 3135 3135 3135 3136 3136 3136 3136 3135 3135 3135 3135 3135 3135 3135 3136 3137 3138 3140 3141 3142 3144 3145 3147 3148 3150 3150 3151 3152 3154 3154 3155 3156 3157 3158 3158 3159 3159 3160 3161 3163 3165 3167 3169 3171 3172 3174 3176 3178 3180
3122 3123 3123 3124 3125 3125 3126 3126 3127 3128 3128 3129 3129 3130 3130 3130 3130 3130 3131 3131 3131 3130 3130 3130 3131 3131 3131 3131 3132 3132 3132 3132 3133 3133 3134 3134 3134 3135 3135 3135 3135 3135 3135 3135 3136 3136 3136 3135 3135 3135 3135 3136 3136 3136 3137 3138 3139 3140 3142 3143 3145 3146 3147 3148 3149 3150 3151 3152 3153 3154 3156 3156 3157 3158 3158 3159 3159 3160 3162 3165 3167 3169 3170 3172 3174 3175 3177 3179
3121 3122 3122 3123 3124 3125 3125 3126 3127 3127 3128 3129 3129 3130 3130 3130 3130 3131 3131 3131 3130 3130 3130 3131 3131 3131 3131 3131 3132 3132 3132 3133 3133 3134 3134 3134 3135 3135 3135 3135 3135 3134 3135 3135 3136 3136 3136 3136 3136 3136 3137 3137 3137 3137 3137 3138 3139 3140 3141 3142 3144 3145 3146 3147 3148 3149 3150 3151 3152 3154 3155 3156 3157 3158 3158 3158 3159 3160 3162 3164 3166 3168 3170 3171 3173 3175 3176 3178
3120 3121 3122 3122 3124 3124 3125 3125 3126 3127 3128 3128 3129 3129 3130 3130 3130 3131 3131 3130 3130 3130 3130 3130 3131 3131 3131 3131 3132 3132 3132 3133 3133 3134 3134 3134 3135 3135 3135 3135 3135 3134 3134 3134 3135 3136 3136 3137 3137 3137 3138 3138 3138 3138 3138 3139 3140 3140 3141 3142 3143 3144 3145 3146 3148 3149 3150 3150 3151 3153 3154 3154 3155 3157 3157 3158 3158 3159 3161 3163 3165 3167 3169 3171 3172 3173 3175 3176
3118 3120 3121 3122 3123 3124 3124 3125 3126 3126 3127 3128 3128 3129 3130 3130 3130 3130 3130 3130 3130 3130 3130 3130 3131 3131 3131 3131 3132 3132 3133 3133 3133 3134 3134 3134 3135 3135 3135 3135 3135 3134 3134 3134 3134 3135 3136 3137 3137 3137 3138 3139 3139 3139 3140 3140 3141 3141 3141 3142 3142 3143 3145 3146 3147 3148 3149 3150 3151 3151 3152 3153 3154 3155 3156 3157 3157 3158 3160 3162 3164 3166 3168 3170 3171 3173 3174 3175
3117 3118 3120 3121 3122 3123 3124 3124 3125 3126 3127 3127 3128 3129 3129 3130 3130 3130 3130 3130 3130 3130 3130 3130 3131 3131 3131 3132 3132 3132 3133 3133 3133 3134 3134 3134 3134 3135 3135 3134 3134 3134 3134 3134 3134 3134 3135 3136 3136 3137 3138 3139 3139 3140 3141 3141 3141 3142 3142 3142 3142 3143 3144 3145 3145 3146 3147 3149 3150 3150 3151 3152 3153 3154 3155 3155 3156 3157 3159 3162 3164 3166 3167 3169 3170 3172 3173 3174